Chengdu

Airport
ICAO code: 
ZUUU
Summary
ICAO Region: 
APAC
Territory: 
Location: 
Shuangliu County, Chengdu,
Coordinates: 
Aerial View: 
30° 34' 42.603" N, 103° 56' 49.195" E
Metar
Observation
ZUUU 260300Z 01002MPS 330V040 5000 -RA BR SCT010 BKN023 07/06 Q1018 NOSIG
Station
Chengdu
Date/Time
2022-01-26 03:00:00
Wind direction
10°
Lowest cloud amount
scattered clouds
Temperature
7°C
Dew point
6°C
Humidity
93%
QNH
1018 hPa
Weather condition
n/a

Description

Chengdu Shuangliu International Airport is the major airport in Chengdu, China. It is located in the north of Shuangliu County, about 16 km southwest of downtown Chengdu.

Climatology

Warm continental climate/Humid continental climate (Köppen climate classification Dwa)

Runways

Designator Length Width Surface Rops
2/20 3600 60 CON Yes/Yes
Airport map: 
Aerial View: 

SKYbrary Partners:

Safety knowledge contributed by: